Wind_Speed
10 9 9 12 6 6 15 7 13 9 10 12 15 15 20 16 10 9 17 16 23 20 17 15 15 14 13 12 12 12 12 12 12 11 10 10 9 7 7 8 8 8 9 9 10 9 10 11 12
9 11 10 5 7 11 4 10 13 16 15 9 9 8 21 18 19 17 18 18 20 26 19 17 16 14 13 12 12 12 12 10 10 9 8 8 6 6 7 7 8 9 9 9 8 8 9 10 10
8 6 3 4 9 14 11 11 15 12 8 9 5 19 14 14 15 18 20 19 20 22 19 19 16 15 13 12 11 11 10 9 9 8 7 7 6 6 7 7 7 8 8 8 8 9 9 9 9
6 4 4 7 12 12 16 16 14 9 3 4 15 13 15 18 19 21 20 20 24 20 19 18 17 15 13 12 10 10 9 9 8 7 7 6 6 6 6 7 8 8 9 10 10 10 10 11 11
13 4 8 11 9 12 13 13 8 6 7 8 5 18 16 23 23 20 20 20 26 18 16 16 15 14 12 10 10 9 8 8 7 6 6 6 6 6 7 7 8 8 8 9 9 9 10 10 11
5 3 8 8 12 11 10 6 3 18 10 9 12 17 14 20 20 19 19 20 19 19 13 15 13 12 11 10 9 9 8 8 8 7 6 6 6 6 7 7 7 7 8 9 8 9 9 9 10
10 8 17 12 11 9 6 2 3 4 8 6 8 16 12 18 18 17 18 18 17 16 14 12 11 11 10 10 8 8 7 8 7 7 7 6 7 10 10 7 9 9 9 9 9 10 10 10 10
11 10 15 9 9 12 6 3 8 5 13 9 9 7 14 19 17 17 16 15 16 15 14 14 6 7 6 8 8 8 7 8 8 9 11 7 5 7 8 8 12 13 12 12 12 12 13 12 10
18 11 6 7 9 11 7 5 3 7 8 5 6 8 23 22 19 16 16 14 14 14 10 12 11 9 6 5 8 7 7 7 6 7 10 7 8 7 5 10 10 11 13 16 10 11 15 11 9
9 8 11 11 10 11 8 5 8 5 9 8 9 20 24 20 18 15 14 12 15 13 11 10 10 7 5 6 1 5 3 6 5 5 6 10 9 3 8 7 9 8 14 14 8 15 13 12 12
6 9 9 8 8 6 7 11 5 6 7 12 13 14 16 18 16 14 15 16 14 12 11 16 10 6 2 6 4 6 5 6 3 8 5 6 7 7 8 11 11 15 15 11 15 15 15 9 17
2 5 8 12 3 2 6 10 3 2 10 8 15 14 17 13 13 13 13 17 15 16 17 17 14 8 5 3 6 7 7 6 4 7 5 5 5 5 7 8 9 10 11 12 11 13 13 16 13
7 5 10 8 6 3 6 6 4 1 8 3 12 12 14 12 14 14 14 15 17 18 18 18 18 13 7 3 4 3 3 4 3 3 3 2 3 5 5 7 9 11 13 13 12 14 16 16 15
9 8 9 8 7 4 5 7 6 8 13 8 7 12 11 13 16 17 13 12 15 15 16 15 19 15 12 4 3 2 4 2 3 2 2 3 3 5 6 8 10 12 14 15 17 19 19 18 17
6 7 6 6 7 7 6 7 11 10 8 11 10 7 12 12 14 15 13 10 11 12 9 16 10 18 12 6 4 2 3 3 0 1 2 3 3 6 8 9 11 13 15 17 19 20 19 21 21
9 8 9 11 10 6 8 10 14 11 10 9 13 11 9 11 12 15 12 6 6 11 5 3 12 10 10 5 5 3 2 2 3 7 6 7 4 6 9 11 14 16 18 19 20 22 22 21 22
8 9 8 9 9 2 11 12 14 12 7 8 7 9 9 7 12 15 15 7 2 4 6 4 9 8 8 8 2 4 4 4 7 6 7 1 5 8 10 15 17 20 21 20 22 22 22 21 22
13 10 4 5 9 6 9 10 9 7 3 8 10 10 11 9 9 15 18 13 12 10 6 4 12 10 7 6 1 3 6 6 7 6 4 7 10 7 11 15 19 21 21 22 22 23 24 24 25
10 7 7 12 7 3 9 10 3 9 6 3 4 3 6 18 21 23 18 16 11 9 17 15 13 10 4 3 4 8 11 11 11 9 11 8 11 12 14 17 17 21 22 23 25 26 28 27 25
6 6 6 5 6 3 10 9 10 6 6 5 6 6 15 15 14 18 19 18 16 14 13 13 12 10 9 8 5 4 7 6 7 10 6 11 13 14 18 20 21 20 22 23 23 25 27 24 22
5 5 9 8 11 10 12 11 12 9 4 9 11 11 14 12 12 12 16 14 14 15 13 13 11 10 10 9 8 8 9 10 11 12 17 14 15 20 20 19 23 22 20 20 22 28 26 23 22
7 6 6 9 9 8 12 7 13 13 10 11 12 11 10 11 10 11 14 12 14 13 11 9 7 8 8 9 9 11 14 16 17 15 17 18 19 17 21 23 24 23 22 23 24 20 23 19 16
5 5 7 9 10 10 12 7 14 16 13 12 11 11 9 10 9 9 11 13 13 10 8 6 6 4 3 6 7 8 10 13 16 18 18 20 16 22 23 24 25 24 26 24 19 11 13 14 15
7 9 11 8 9 3 12 1 4 3 13 13 12 10 8 8 7 8 8 11 12 8 5 6 8 10 10 2 7 9 11 13 16 17 18 19 22 22 21 22 24 23 16 12 12 11 10 7 8
6 9 4 2 3 1 4 3 8 9 8 11 11 10 9 6 7 5 6 9 7 4 5 5 11 14 15 15 12 13 13 15 15 17 18 21 21 20 23 21 18 18 12 13 11 9 10 12 19
4 6 2 4 4 4 4 3 9 12 9 10 11 9 8 7 4 4 5 3 6 10 11 9 10 14 16 14 15 13 12 12 13 15 17 17 18 19 21 24 19 11 9 10 11 12 15 16 18
5 5 3 1 2 2 5 12 13 11 9 8 8 4 5 3 3 4 6 6 8 9 11 9 9 14 15 16 12 11 12 13 12 15 16 17 15 18 22 22 12 10 9 11 15 20 21 23 20
4 1 2 2 2 3 8 7 6 7 6 6 5 4 5 4 6 6 9 15 13 11 9 10 12 13 13 14 15 15 16 15 14 16 15 13 19 20 22 22 17 14 13 15 19 17 19 17 18
1 2 2 3 0 2 3 1 8 6 5 3 5 7 7 7 7 8 14 11 13 14 13 13 16 14 13 13 14 16 18 16 16 10 15 15 19 19 22 22 20 16 18 19 16 16 14 12 14
3 4 3 1 3 1 1 7 8 4 6 10 10 11 7 9 11 11 12 12 12 13 12 15 11 11 14 15 19 20 19 17 13 14 14 17 17 17 20 24 22 22 20 18 19 19 18 16 16
Wind_Direction
277 290 285 268 253 225 250 99 81 83 62 58 44 60 66 47 30 86 96 112 106 105 97 106 110 108 101 93 89 84 80 80 82 81 79 71 64 57 45 35 26 17 12 9 5 0 349 343 345
278 294 262 283 251 255 139 92 78 74 82 88 64 65 72 67 87 107 108 115 110 107 101 103 110 106 98 92 86 83 81 82 80 75 71 69 59 45 31 21 17 20 24 23 22 358 353 348 341
272 289 272 237 239 265 115 116 98 100 125 107 82 51 53 88 82 101 111 111 104 95 103 102 105 102 100 94 86 86 84 82 79 78 74 63 50 37 31 24 30 31 32 30 20 13 5 355 347
227 204 261 249 258 47 111 95 106 115 77 359 107 98 65 77 97 110 119 116 105 102 106 108 106 103 96 89 88 84 80 78 81 80 73 61 55 45 43 41 47 44 38 28 21 15 8 5 1
242 262 244 226 83 69 81 91 137 121 153 118 50 98 85 91 110 119 114 110 106 110 111 109 103 99 94 90 88 87 92 89 82 72 68 65 58 55 53 41 39 29 27 23 17 13 5 3 359
246 246 258 232 98 62 54 60 337 152 121 79 101 100 96 115 118 116 118 113 111 120 114 108 105 96 87 82 80 83 79 76 71 68 64 65 59 45 38 31 31 21 20 16 10 4 358 353 348
246 268 280 119 108 124 99 44 217 83 96 83 110 108 125 127 121 125 123 120 121 123 120 103 100 92 90 79 80 84 82 77 73 65 59 53 63 42 37 32 33 12 7 2 358 355 349 343 338
235 261 259 112 161 115 94 284 52 50 72 60 360 148 149 120 135 129 127 133 134 132 128 138 113 81 125 90 73 80 77 77 66 65 40 45 61 45 44 33 1 355 355 354 350 354 349 337 328
258 264 129 134 168 123 153 143 25 22 92 81 34 132 127 140 146 145 144 152 135 141 131 134 115 97 123 106 64 91 83 86 80 68 34 19 42 22 55 341 347 358 3 351 350 357 353 343 334
278 319 98 56 49 121 179 144 107 185 122 114 85 106 126 148 156 155 161 160 153 152 159 132 122 121 119 113 98 131 83 102 81 54 20 53 23 340 5 326 338 340 340 345 333 340 332 325 335
270 87 84 73 25 116 137 95 145 165 179 142 146 140 144 159 166 170 179 169 175 172 166 142 141 139 79 78 66 90 108 92 111 111 43 37 8 33 14 0 3 350 338 356 340 326 328 319 309
35 41 94 80 36 72 146 122 185 84 90 129 143 156 156 172 175 188 198 173 177 166 164 155 150 157 141 59 37 56 62 75 65 39 71 34 26 21 16 5 347 341 333 323 318 319 314 310 298
98 105 88 110 143 2 59 128 55 196 103 114 125 155 157 175 179 195 209 170 178 172 167 175 161 155 150 108 71 59 68 112 56 75 63 54 49 13 360 348 341 335 330 328 324 319 312 308 306
123 140 134 148 132 140 205 135 211 163 143 179 156 163 168 176 189 183 206 190 160 171 176 174 162 164 159 154 122 146 166 34 95 115 73 30 350 331 336 325 327 319 317 313 311 305 297 292 285
142 158 157 168 151 151 230 227 212 135 191 170 175 204 178 182 186 165 186 188 195 176 178 184 198 156 144 155 166 186 143 153 237 248 290 250 281 293 303 304 300 300 303 300 301 298 297 295 292
198 229 198 158 165 171 212 246 186 150 172 204 187 203 208 173 176 156 156 176 180 221 74 193 147 135 132 189 148 184 132 166 254 251 237 258 264 304 304 308 305 303 302 304 298 295 295 293 291
213 231 182 151 180 197 209 284 136 171 196 249 254 189 190 198 167 154 154 157 126 32 40 14 120 117 148 185 194 187 235 254 273 325 317 24 355 329 318 313 308 305 303 299 297 293 290 289 292
316 218 146 203 151 208 271 258 158 94 300 264 249 215 182 187 182 124 78 61 48 52 48 58 95 100 105 80 228 241 233 247 267 303 317 355 346 328 329 316 312 311 307 302 299 298 299 295 290
334 5 334 89 90 337 258 276 48 43 263 225 213 69 80 82 67 66 75 78 77 74 69 80 70 70 54 30 20 8 8 3 348 341 342 349 328 314 325 318 311 310 315 312 312 310 305 300 296
316 338 314 47 67 296 280 232 102 73 358 73 89 99 91 87 86 83 73 72 73 75 77 77 75 57 37 51 31 18 2 320 296 306 350 348 329 329 326 315 315 311 308 308 310 313 314 306 305
253 328 23 331 325 268 268 262 128 117 106 98 87 91 95 99 104 98 88 85 81 75 76 78 75 66 40 19 31 5 338 322 331 323 310 331 334 334 323 329 329 321 315 310 307 304 303 307 310
323 36 322 290 281 286 179 291 143 147 137 112 97 82 84 89 86 97 101 95 85 78 73 73 61 54 44 22 15 3 346 358 343 341 336 342 339 336 336 330 327 324 322 314 307 304 307 318 340
15 340 296 286 274 274 264 236 142 152 155 132 118 99 78 62 80 93 101 100 94 90 76 46 9 39 46 12 1 350 344 338 334 338 340 341 342 340 335 328 327 326 317 308 307 336 352 359 7
308 268 249 258 250 269 263 288 59 155 135 137 115 97 96 113 110 99 112 130 122 104 72 14 343 350 356 335 332 332 345 351 347 347 352 352 343 333 332 327 325 319 322 328 333 328 318 329 335
301 321 276 286 193 309 3 289 94 123 82 125 124 119 90 67 51 62 67 47 74 60 356 358 351 339 341 359 7 6 8 3 1 357 355 344 334 335 331 334 345 344 342 342 341 354 352 339 331
346 313 49 325 358 333 281 303 117 111 101 96 86 98 130 123 125 88 54 25 19 11 355 358 354 344 341 357 9 8 7 2 357 353 343 333 332 328 324 332 324 339 359 20 15 8 347 329 315
353 56 357 246 33 308 263 99 105 118 124 128 113 123 115 89 54 69 24 43 31 4 12 352 341 326 348 353 350 357 2 351 352 340 328 320 337 340 335 344 342 335 342 336 326 318 314 310 296
42 7 309 21 318 314 336 8 71 172 155 72 233 96 22 347 28 17 14 26 16 6 359 358 354 345 342 348 355 346 338 328 324 314 316 349 336 335 323 326 328 330 328 326 322 316 315 307 320
124 61 5 326 335 302 312 7 42 0 69 51 355 343 19 26 10 15 31 33 18 0 357 344 339 348 345 340 332 332 329 324 316 356 348 337 329 325 320 318 315 313 312 313 309 303 308 304 303
359 3 325 110 317 228 236 273 300 49 19 7 359 14 359 38 32 23 8 1 351 336 325 328 343 346 329 333 333 326 324 322 334 345 330 323 317 321 317 316 318 312 312 309 309 310 299 290 304
Height
776 775 775 772 789 771 769 753 739 755 760 752 750 759 773 776 779 810 796 801 804 809 814 817 819 822 823 825 826 828 829 831 832 834 834 835 836 839 839 839 840 840 840 840 839 838 837 837 834
775 773 775 773 787 781 761 746 756 757 756 755 757 758 772 790 781 791 798 803 806 812 815 817 821 823 824 827 828 829 831 834 833 835 836 836 838 838 839 840 840 839 840 840 840 839 837 836 835
776 774 778 777 775 777 765 752 758 762 756 758 769 769 772 786 785 795 802 805 809 813 815 819 824 825 827 828 829 831 833 834 835 837 839 838 839 840 839 841 840 841 840 840 840 838 837 836 835
777 773 774 783 777 754 750 753 756 764 762 759 765 787 782 783 793 801 805 808 811 816 819 821 824 826 827 829 832 832 835 836 838 838 838 839 840 840 840 842 841 841 841 841 840 839 839 837 835
776 770 783 772 763 754 750 752 755 765 768 766 767 790 793 794 799 804 806 810 813 817 821 823 825 827 830 832 832 833 834 836 838 839 839 840 840 842 841 842 841 841 841 840 840 840 839 837 836
780 765 781 777 769 762 760 756 757 765 766 770 774 787 797 799 803 806 809 812 817 820 822 824 827 829 831 833 835 836 837 837 840 840 841 841 841 842 841 841 841 842 841 840 840 840 839 837 837
779 781 781 763 773 774 771 763 766 766 769 775 771 791 798 800 805 807 810 814 819 821 823 826 828 831 832 834 835 835 838 837 841 842 841 841 842 841 841 842 842 842 841 840 840 839 838 837 836
764 769 778 763 777 782 773 768 763 767 779 771 772 791 801 801 806 809 813 815 819 822 824 827 829 831 832 834 836 837 838 839 840 842 842 841 842 841 842 842 843 842 841 841 840 839 838 836 834
752 766 768 770 769 777 772 776 770 769 777 776 779 780 791 801 807 811 814 816 820 822 825 828 830 834 834 835 836 836 837 839 839 841 841 842 841 841 842 841 842 842 841 839 838 838 837 836 834
758 766 763 756 759 769 773 771 775 779 784 785 788 790 796 803 807 810 813 815 818 822 825 829 831 833 834 835 835 835 837 837 839 841 843 844 842 842 843 841 841 841 840 838 838 838 836 835 833
757 770 761 762 764 764 773 775 773 777 787 784 793 792 799 804 806 810 811 813 817 821 822 825 829 833 832 834 834 837 837 839 840 840 841 842 842 842 841 842 841 840 839 838 837 837 836 835 834
767 762 761 765 767 768 775 771 776 774 775 776 782 788 797 802 803 806 808 809 812 818 820 824 826 831 830 832 834 835 837 838 840 840 841 841 841 841 841 841 841 841 840 839 837 836 835 833 832
766 767 766 769 773 771 771 777 777 778 778 779 782 789 795 799 802 804 804 806 810 813 815 818 820 823 827 832 833 835 837 838 838 839 839 840 841 840 840 840 840 839 838 837 836 834 833 831 829
762 768 771 770 772 774 779 777 779 775 776 782 785 787 790 794 798 799 803 805 807 811 812 817 821 824 826 829 832 834 837 837 838 839 839 840 840 839 839 839 838 837 836 835 833 831 829 827 826
764 777 772 773 774 778 776 783 784 774 776 781 785 784 786 790 792 797 802 805 806 809 811 813 815 821 823 827 831 834 835 836 838 838 838 839 838 838 837 836 835 834 833 831 830 828 826 824 822
774 769 783 771 770 773 780 790 771 770 775 780 779 783 783 785 790 795 801 805 808 809 813 814 815 817 821 828 831 834 834 835 837 836 836 836 835 835 835 835 834 833 831 829 827 825 822 821 819
774 785 778 780 767 769 777 781 767 766 772 779 775 777 780 784 789 793 799 804 808 809 811 815 816 820 824 828 832 833 834 835 835 834 835 834 834 834 833 833 832 831 829 826 824 821 819 816 814
793 776 773 776 775 776 779 776 765 767 773 777 776 775 779 783 787 792 800 805 810 812 816 818 819 823 826 829 831 832 833 833 834 834 834 833 834 833 833 832 831 830 827 824 822 818 816 813 810
774 775 776 772 776 784 783 777 769 771 774 775 774 775 779 790 797 802 807 811 816 819 819 820 823 827 829 830 831 831 831 831 833 833 833 833 834 833 832 831 829 827 824 822 820 817 813 810 808
778 783 782 774 778 788 781 781 775 779 782 777 779 782 788 797 805 811 815 818 822 824 824 826 828 830 831 833 834 834 834 834 833 833 833 833 831 832 831 830 827 825 822 820 818 814 810 807 806
778 789 794 798 785 779 784 788 786 786 786 783 784 787 794 802 809 814 820 825 827 827 828 830 832 833 834 833 834 834 833 832 831 830 829 829 829 830 831 829 826 823 820 817 814 812 809 804 802
797 790 795 797 798 801 776 807 787 792 797 795 795 798 802 807 811 816 823 828 829 831 832 833 834 834 835 835 835 836 835 834 834 833 832 830 830 830 828 826 824 821 817 814 812 810 806 802 799
796 792 795 795 797 793 784 795 787 785 800 802 802 804 809 813 817 821 826 828 831 833 834 835 835 834 834 835 836 836 835 835 834 834 832 831 829 828 827 826 822 818 815 812 808 806 804 803 801
789 790 787 788 792 812 786 788 808 796 793 800 803 807 811 815 820 824 826 827 831 833 834 836 835 834 834 833 833 834 833 833 833 833 832 831 830 829 826 823 819 817 813 808 805 803 803 801 800
787 793 813 828 814 819 790 795 803 795 793 795 806 810 814 818 821 822 824 826 829 832 834 834 835 835 834 833 832 832 832 832 833 832 832 831 830 827 824 821 818 815 811 808 805 803 803 803 802
797 801 826 840 839 824 790 802 808 796 799 801 805 811 816 820 823 825 827 829 830 831 832 833 834 835 834 833 832 832 832 832 832 832 831 831 828 826 823 819 817 814 811 808 806 805 804 803 801
805 815 806 823 835 839 805 800 800 801 806 807 810 811 814 817 819 822 825 827 828 831 832 833 834 834 834 833 832 832 831 831 830 831 830 828 826 824 821 820 815 813 810 808 807 804 801 799 798
803 802 821 822 846 844 813 807 820 812 811 811 811 812 813 815 817 821 823 827 829 830 831 832 833 833 833 832 832 831 830 829 828 828 827 825 824 822 820 817 815 812 809 807 805 803 799 796 794
809 810 814 817 827 845 846 826 805 808 806 812 813 811 813 817 819 822 825 829 831 832 832 832 831 830 832 831 831 831 830 828 826 825 824 822 821 820 818 815 812 810 807 805 802 799 796 793 791
809 814 816 839 839 835 840 835 802 805 807 810 813 815 819 821 824 827 830 831 832 831 831 830 830 830 831 831 830 829 827 826 823 822 822 821 820 817 815 813 809 807 804 801 799 796 793 790 788